Flag Weather past 2 weeks in Cancún, Quintana Roo, Mexico

Now
70 °F

Passing clouds.


Feels Like: 70 °F
Forecast: 76 / 83 °F
Wind: 6 mph from Northwest

Location: Cancun International Airport

Current Time: Oct 31, 2014 at 2:37:59 AM

Latest Report: Oct 31, 2014 at 1:53 AM


Visibility: 7 mi

Pressure: 29.91 "Hg

Humidity: 100%

Dew point: 70 °F

Location of CancúnLocation

Historic Weather in Cancún — Graph

°F

Cancún temperature yesterday

Maximum temperature yesterday: 86 °F (at 11:48 AM)
Minimum temperature yesterday: 70 °F (at 3:47 AM)
Average temperature yesterday: 76 °F

Past Weeks' High & Low Weather Summary

 TemperatureHumidityPressure
High88 °F (Oct 16, 11:40 AM)100% (Oct 16, 12:45 AM)30.03 "Hg (Oct 16, 12:45 AM)
Low34 °F (Oct 21, 8:29 AM)51% (Oct 26, 11:45 AM)29.72 "Hg (Oct 22, 3:48 AM)
Average77 °F86%29.91 "Hg
* Reported Oct 16 12:45 AM — Oct 30 11:48 PM, Cancún, Weather by CustomWeather, © 2014

Note: Actual official high and low records may vary slightly from our data, if they occured in-between our weather recording intervals... More about our weather records

Advertising

Cancún weather history for previous 24 hours

 ConditionsComfort  
Time TempWeatherWind HumidityBarometerVisibility
11:48 PM
Oct 30
72 °FPassing clouds.2 mph100%29.90 "Hg7 mi
10:47 PM72 °FPassing clouds.5 mph100%29.94 "Hg7 mi
9:51 PM72 °FPassing clouds.5 mph100%29.94 "Hg7 mi
8:41 PM73 °FPassing clouds.5 mph94%29.92 "Hg7 mi
2:51 PM84 °FScattered clouds.8 mph70%29.87 "Hg7 mi
1:50 PM86 °FScattered clouds.8 mph66%29.88 "Hg7 mi
12:50 PM86 °FPartly sunny.8 mph62%29.90 "Hg7 mi
11:48 AM86 °FPartly sunny.6 mph62%29.92 "Hg7 mi
9:47 AM84 °FScattered clouds.5 mph70%29.98 "Hg7 mi
8:48 AM84 °FScattered clouds.6 mph70%29.96 "Hg7 mi
7:52 AM81 °FPassing clouds.5 mph79%29.97 "Hg7 mi
6:45 AM73 °FScattered clouds.6 mph94%29.96 "Hg7 mi
5:45 AM70 °FPassing clouds.No wind100%29.93 "Hg7 mi
4:46 AM70 °FPassing clouds.No wind100%29.93 "Hg7 mi
3:47 AM70 °FPassing clouds.No wind100%29.93 "Hg7 mi
2:48 AM72 °FPassing clouds.No wind94%29.91 "Hg7 mi
Weather by CustomWeather, © 2014

See weather overviewHow to use our weather pages